Location: Manderson
(44.2693°N, 107.9639°W)
Time: 02:20:03
(UTC+00:00)

Envisat - Visible Passes

Search period start: 19 January 2022 00:00
Search period end: 29 January 2022 00:00
Orbit: 764 x 766 km, 98.2° (Epoch: 18 January)

Date Brightness Start Highest point End Pass type
(mag) Time Alt. Az. Time Alt. Az. Time Alt. Az.
19 Jan 3.1 12:02:31 10° NNE 12:07:37 71° ESE 12:12:40 10° S visible
19 Jan 4.4 13:42:56 10° NNW 13:46:03 17° WNW 13:49:10 10° W visible
20 Jan 4.5 11:26:02 10° NNE 11:30:36 33° E 11:35:09 10° SSE visible
20 Jan 3.6 13:05:05 10° N 13:09:34 33° WNW 13:14:03 10° SW visible
21 Jan 5.7 10:50:25 10° NE 10:53:23 15° E 10:56:20 10° SE visible
21 Jan 2.8 12:27:49 10° N 12:32:53 68° WNW 12:37:55 10° SSW visible
22 Jan 3.5 11:51:00 10° NNE 11:56:00 56° E 12:00:59 10° S visible
22 Jan 4.2 13:30:56 10° NNW 13:34:36 20° WNW 13:38:15 10° WSW visible
23 Jan 6.2 00:49:45 10° WSW 00:51:39 12° W 00:53:31 10° WNW visible
23 Jan 4.9 11:14:41 10° NE 11:18:56 26° E 11:23:09 10° SSE visible
23 Jan 3.3 12:53:19 10° N 12:58:04 40° WNW 13:02:46 10° SW visible
24 Jan 5.9 10:39:46 10° ENE 10:41:38 12° E 10:43:31 10° ESE visible
24 Jan 2.8 12:16:12 10° NNE 12:21:19 86° WNW 12:26:24 10° SSW visible
24 Jan 4.7 13:57:25 10° NNW 13:59:32 13° WNW 14:01:39 10° W visible
25 Jan 4.0 11:39:30 10° NNE 11:44:22 44° E 11:49:13 10° S visible
25 Jan 4.0 13:19:02 10° N 13:23:07 25° WNW 13:27:12 10° WSW visible
26 Jan 6.0 00:36:57 10° SW 00:39:53 15° W 00:42:52 10° NW visible
26 Jan 5.3 11:03:26 10° NE 11:07:13 21° E 11:11:00 10° SE visible
26 Jan 3.1 12:41:36 10° N 12:46:31 51° WNW 12:51:24 10° SW visible
27 Jan 3.0 12:04:36 10° NNE 12:09:43 76° ESE 12:14:47 10° S visible
27 Jan 4.5 13:45:10 10° NNW 13:48:07 16° WNW 13:51:02 10° W visible
28 Jan 4.4 11:28:03 10° NNE 11:32:43 35° E 11:37:20 10° SSE visible
28 Jan 3.7 13:07:13 10° N 13:11:38 31° WNW 13:16:02 10° SW visible
